This demonstration page uses our WeatherBlox Daily Observations layout. Learn more.

38.88101, -77.10428

Hourly Observations for January 13, 2017

Temp ( °F °C ) Dew Point ( °F °C ) Humidity (%) Winds ( mph kmh ) Pressure ( in mb ) Visibility ( mi km ) Precip ( " mm )
12:52 am 00:52 Cloudy 64 17.8 52 11.1 65 65 WSW 8 13 30.2 1023 10 16.0934 0 0
1:52 am 01:52 Cloudy 59 15 51 10.6 75 75 S 6 9 30.22 1024 10 16.0934 0 0
2:52 am 02:52 Cloudy 59 15 51 10.6 75 75 S 9 15 30.23 1024 10 16.0934 0 0.0254
3:52 am 03:52 Cloudy 55 12.8 50 10 83 83 Calm 30.25 1024 10 16.0934 0 0
4:52 am 04:52 Mostly Cloudy 57 13.9 52 11.1 83 83 W 3 6 30.27 1025 10 16.0934 0 0
5:52 am 05:52 Mostly Cloudy 59 15 48 8.9 67 67 NNW 16 26 30.33 1027 10 16.0934 0 0
6:52 am 06:52 Cloudy 58 14.4 44 6.7 60 60 NNW 14 22 30.36 1028 10 16.0934 0 0
7:52 am 07:52 Mostly Cloudy 54 12.2 42 5.6 64 64 NNW 20 31 30.4 1030 10 16.0934 0 0
8:52 am 08:52 Mostly Cloudy 52 11.1 39 3.9 61 61 NNW 15 24 30.45 1031 10 16.0934 0 0
9:52 am 09:52 Mostly Cloudy 51 10.6 36 2.2 56 56 NNW 22 35 30.5 1033 10 16.0934 0 0
10:52 am 10:52 Mostly Cloudy 52 11.1 35 1.7 53 53 NNW 17 28 30.51 1033 10 16.0934 0 0
11:52 am 11:52 Mostly Cloudy 53 11.7 31 -0.6 43 43 NNW 16 26 30.51 1033 10 16.0934 0 0
12:52 pm 12:52 Mostly Cloudy 52 11.1 31 -0.6 45 45 NNW 10 17 30.49 1033 10 16.0934 0 0
1:52 pm 13:52 Mostly Cloudy 53 11.7 29 -1.7 40 40 NNW 10 17 30.5 1033 10 16.0934 0 0
2:52 pm 14:52 Mostly Cloudy 53 11.7 29 -1.7 40 40 NW 14 22 30.51 1033 10 16.0934 0 0
3:52 pm 15:52 Mostly Cloudy 54 12.2 28 -2.2 37 37 NNW 12 19 30.54 1034 10 16.0934 0 0
4:52 pm 16:52 Mostly Cloudy 50 10 26 -3.3 39 39 N 17 28 30.58 1036 10 16.0934 0 0
5:52 pm 17:52 Mostly Cloudy 49 9.4 24 -4.4 38 38 N 14 22 30.59 1036 10 16.0934 0 0
6:52 pm 18:52 Cloudy 47 8.3 24 -4.4 41 41 N 15 24 30.61 1037 10 16.0934 0 0
7:52 pm 19:52 Cloudy 46 7.8 25 -3.9 44 44 NNE 15 24 30.64 1038 10 16.0934 0 0
8:52 pm 20:52 Cloudy 45 7.2 24 -4.4 44 44 NNE 10 17 30.65 1038 10 16.0934 0 0
9:52 pm 21:52 Cloudy 44 6.7 22 -5.6 41 41 NNE 10 17 30.67 1039 10 16.0934 0 0
10:52 pm 22:52 Cloudy 44 6.7 22 -5.6 41 41 NNE 15 24 30.69 1039 10 16.0934 0 0
11:52 pm 23:52 Cloudy 43 6.1 23 -5 45 45 NE 12 19 30.68 1039 10 16.0934 0 0

Powered by AerisWeather